| time (UTC) | temp C | wind direction | speed KPH | gust KPH | rain 1hr cm | rain 24hr cm | rain mn cm | humidity % | barometer mb |
| 20260504194512 | 23 | 182 | 4.8 | 19.3 | 0.00 | 0.00 | 0.00 | 37 | 1006.3 |
| 20260504194503 | 23 | 217 | 6.4 | 20.9 | 0.00 | 0.00 | 0.00 | 37 | 1006.2 |
| 20260504193603 | 23 | 226 | 4.8 | 19.3 | 0.00 | 0.00 | 0.00 | 34 | 1006.3 |
| 20260504193004 | 23 | 240 | 3.2 | 17.7 | 0.00 | 0.00 | 0.00 | 36 | 1006.4 |
| 20260504192703 | 23 | 217 | 6.4 | 17.7 | 0.00 | 0.00 | 0.00 | 38 | 1006.4 |
| 20260504191803 | 23 | 228 | 4.8 | 14.5 | 0.00 | 0.00 | 0.00 | 36 | 1006.5 |
| 20260504191509 | 23 | 201 | 4.8 | 12.9 | 0.00 | 0.00 | 0.00 | 37 | 1006.6 |
| 20260504190903 | 23 | 205 | 4.8 | 12.9 | 0.00 | 0.00 | 0.00 | 37 | 1006.6 |
| 20260504190008 | 23 | 154 | 6.4 | 12.9 | 0.00 | 0.00 | 0.00 | 36 | 1006.9 |
| 20260504190003 | 23 | 215 | 4.8 | 14.5 | 0.00 | 0.00 | 0.00 | 36 | 1006.8 |
| 20260504185403 | 23 | 220 | 3.2 | 9.7 | 0.00 | 0.00 | 0.00 | 40 | 1006.7 |
| 20260504184513 | 22 | 243 | 3.2 | 12.9 | 0.00 | 0.00 | 0.00 | 35 | 1007.1 |
| 20260504184503 | 22 | 244 | 6.4 | 16.1 | 0.00 | 0.00 | 0.00 | 35 | 1007.0 |
| 20260504183818 | 22 | 215 | 6.4 | 16.1 | 0.00 | 0.00 | 0.00 | 36 | 1007.0 |
| 20260504183012 | 22 | 150 | 6.4 | 19.3 | 0.00 | 0.00 | 0.00 | 38 | 1007.2 |
| 20260504182703 | 23 | 206 | 6.4 | 19.3 | 0.00 | 0.00 | 0.00 | 36 | 1007.2 |
| 20260504181803 | 22 | 231 | 4.8 | 16.1 | 0.00 | 0.00 | 0.00 | 41 | 1007.3 |
| 20260504181509 | 22 | 206 | 4.8 | 16.1 | 0.00 | 0.00 | 0.00 | 37 | 1007.5 |
| 20260504180903 | 22 | 219 | 6.4 | 16.1 | 0.00 | 0.00 | 0.00 | 36 | 1007.5 |
| 20260504180013 | 22 | 189 | 6.4 | 14.5 | 0.00 | 0.00 | 0.00 | 37 | 1007.7 |
| 20260504180003 | 22 | 227 | 6.4 | 25.7 | 0.00 | 0.00 | 0.00 | 38 | 1007.6 |
| 20260504175403 | 22 | 231 | 6.4 | 25.7 | 0.00 | 0.00 | 0.00 | 40 | 1007.6 |
| 20260504174503 | 21 | 205 | 8.0 | 14.5 | 0.00 | 0.00 | 0.00 | 37 | 1007.8 |
| 20260504173603 | 22 | 226 | 4.8 | 17.7 | 0.00 | 0.00 | 0.00 | 38 | 1007.9 |
| 20260504173007 | 21 | 206 | 4.8 | 16.1 | 0.00 | 0.00 | 0.00 | 40 | 1008.1 |
| 20260504172703 | 21 | 231 | 6.4 | 17.7 | 0.00 | 0.00 | 0.00 | 40 | 1008.0 |
| 20260504171803 | 21 | 227 | 4.8 | 11.3 | 0.00 | 0.00 | 0.00 | 39 | 1007.9 |
| 20260504171509 | 21 | 201 | 4.8 | 17.7 | 0.00 | 0.00 | 0.00 | 39 | 1008.1 |
| 20260504170903 | 21 | 238 | 8.0 | 20.9 | 0.00 | 0.00 | 0.00 | 38 | 1008.1 |
| 20260504160107 | 20 | 184 | 4.8 | 19.3 | 0.00 | 0.00 | 0.00 | 40 | 1009.4 |
| 20260504150903 | 20 | 215 | 4.8 | 12.9 | 0.00 | 0.00 | 0.00 | 46 | 1009.5 |
| 20260504141117 | 18 | 237 | 3.2 | 12.9 | 0.00 | 0.00 | 0.00 | 52 | 1009.8 |
| 20260504081520 | 4 | 222 | 0.0 | 1.6 | 0.00 | 0.00 | 0.00 | 75 | 1010.8 |
| 20260504081116 | 5 | 223 | 0.0 | 1.6 | 0.00 | 0.00 | 0.00 | 75 | 1010.8 |
| 20260504080218 | 5 | 0 | 0.0 | 0.0 | 0.00 | 0.00 | 0.00 | 73 | 1010.6 |
| 20260504070217 | 7 | 0 | 0.0 | 0.0 | 0.00 | 0.00 | 0.00 | 67 | 1010.7 |
| 20260504050014 | 8 | 219 | 0.0 | 8.0 | 0.00 | 0.00 | 0.00 | 62 | 1010.5 |
| 20260504050003 | 8 | 223 | 0.0 | 8.0 | 0.00 | 0.00 | 0.00 | 62 | 1010.4 |
| 20260504045403 | 8 | 215 | 0.0 | 4.8 | 0.00 | 0.00 | 0.00 | 62 | 1010.2 |
| 20260504044516 | 8 | 210 | 0.0 | 1.6 | 0.00 | 0.00 | 0.00 | 61 | 1010.4 |
| 20260504044504 | 8 | 221 | 0.0 | 3.2 | 0.00 | 0.00 | 0.00 | 61 | 1010.2 |
| 20260504043817 | 8 | 206 | 0.0 | 3.2 | 0.00 | 0.00 | 0.00 | 62 | 1010.1 |
| 20260504043004 | 8 | 205 | 0.0 | 6.4 | 0.00 | 0.00 | 0.00 | 60 | 1010.2 |
| 20260504042703 | 8 | 213 | 0.0 | 6.4 | 0.00 | 0.00 | 0.00 | 60 | 1010.1 |
| 20260504041803 | 8 | 235 | 0.0 | 6.4 | 0.00 | 0.00 | 0.00 | 61 | 1010.0 |
| 20260504041506 | 8 | 247 | 0.0 | 6.4 | 0.00 | 0.00 | 0.00 | 61 | 1010.0 |
| 20260504040903 | 8 | 214 | 0.0 | 4.8 | 0.00 | 0.00 | 0.00 | 63 | 1009.8 |
| 20260504040007 | 7 | 209 | 0.0 | 4.8 | 0.00 | 0.00 | 0.00 | 66 | 1010.0 |
| 20260504040005 | 7 | 217 | 0.0 | 4.8 | 0.00 | 0.00 | 0.00 | 66 | 1009.8 |
| 20260504035403 | 7 | 181 | 0.0 | 6.4 | 0.00 | 0.00 | 0.00 | 69 | 1009.8 |
| 20260504034511 | 6 | 181 | 0.0 | 3.2 | 0.00 | 0.00 | 0.00 | 71 | 1009.9 |
| 20260504034503 | 6 | 186 | 0.0 | 3.2 | 0.00 | 0.00 | 0.00 | 71 | 1009.8 |
| 20260504033603 | 6 | 196 | 0.0 | 1.6 | 0.00 | 0.00 | 0.00 | 72 | 1009.7 |
| 20260504033004 | 5 | 179 | 0.0 | 1.6 | 0.00 | 0.00 | 0.00 | 75 | 1009.8 |
| 20260504032703 | 5 | 0 | 0.0 | 0.0 | 0.00 | 0.00 | 0.00 | 76 | 1009.7 |
| 20260504032017 | 5 | 0 | 0.0 | 0.0 | 0.00 | 0.00 | 0.00 | 74 | 1009.7 |
| 20260504031507 | 5 | 179 | 0.0 | 0.0 | 0.00 | 0.00 | 0.00 | 74 | 1009.8 |
| 20260504030903 | 5 | 0 | 0.0 | 0.0 | 0.00 | 0.00 | 0.00 | 72 | 1009.6 |
| 20260504030015 | 5 | 179 | 0.0 | 0.0 | 0.00 | 0.00 | 0.00 | 70 | 1009.7 |
| 20260504030003 | 5 | 0 | 0.0 | 0.0 | 0.00 | 0.00 | 0.00 | 70 | 1009.6 |
| 20260504025403 | 6 | 0 | 0.0 | 0.0 | 0.00 | 0.00 | 0.00 | 68 | 1009.6 |
| 20260504024717 | 6 | 0 | 0.0 | 0.0 | 0.00 | 0.00 | 0.00 | 67 | 1009.6 |
| 20260504024511 | 6 | 179 | 0.0 | 0.0 | 0.00 | 0.00 | 0.00 | 67 | 1009.7 |
| 20260504023603 | 6 | 0 | 0.0 | 0.0 | 0.00 | 0.00 | 0.00 | 68 | 1009.6 |
| 20260504023003 | 6 | 179 | 0.0 | 1.6 | 0.00 | 0.00 | 0.00 | 67 | 1009.8 |
| 20260504022703 | 7 | 0 | 0.0 | 0.0 | 0.00 | 0.00 | 0.00 | 65 | 1009.7 |
| 20260504022017 | 7 | 0 | 0.0 | 0.0 | 0.00 | 0.00 | 0.00 | 63 | 1009.6 |
| 20260504021506 | 7 | 179 | 0.0 | 0.0 | 0.00 | 0.00 | 0.00 | 64 | 1009.7 |
| 20260504020903 | 7 | 0 | 0.0 | 0.0 | 0.00 | 0.00 | 0.00 | 63 | 1009.5 |
| 20260504020012 | 7 | 180 | 0.0 | 0.0 | 0.00 | 0.00 | 0.00 | 64 | 1009.7 |
| 20260504020003 | 7 | 0 | 0.0 | 0.0 | 0.00 | 0.00 | 0.00 | 64 | 1009.6 |
| 20260504015403 | 8 | 0 | 0.0 | 0.0 | 0.00 | 0.00 | 0.00 | 60 | 1009.6 |
| 20260504014611 | 8 | 179 | 0.0 | 1.6 | 0.00 | 0.00 | 0.00 | 61 | 1009.7 |
| 20260504014503 | 8 | 0 | 0.0 | 0.0 | 0.00 | 0.00 | 0.00 | 60 | 1009.5 |
| 20260504013603 | 8 | 0 | 0.0 | 0.0 | 0.00 | 0.00 | 0.00 | 60 | 1009.5 |
| 20260504013027 | 8 | 179 | 0.0 | 0.0 | 0.00 | 0.00 | 0.00 | 60 | 1009.5 |
| 20260504012703 | 8 | 0 | 0.0 | 0.0 | 0.00 | 0.00 | 0.00 | 60 | 1009.4 |
| 20260504011803 | 8 | 0 | 0.0 | 0.0 | 0.00 | 0.00 | 0.00 | 58 | 1009.2 |
| 20260504011511 | 8 | 229 | 0.0 | 0.0 | 0.00 | 0.00 | 0.00 | 59 | 1009.2 |
| 20260504011118 | 9 | 0 | 0.0 | 0.0 | 0.00 | 0.00 | 0.00 | 57 | 1009.1 |
| 20260504010003 | 10 | 0 | 0.0 | 0.0 | 0.00 | 0.00 | 0.00 | 53 | 1008.9 |
| 20260504005617 | 10 | 0 | 0.0 | 0.0 | 0.00 | 0.00 | 0.00 | 53 | 1008.9 |
| 20260504004508 | 10 | 230 | 0.0 | 1.6 | 0.00 | 0.00 | 0.00 | 50 | 1008.9 |
| 20260504004503 | 11 | 0 | 0.0 | 0.0 | 0.00 | 0.00 | 0.00 | 50 | 1008.8 |
| 20260504003603 | 11 | 199 | 0.0 | 1.6 | 0.00 | 0.00 | 0.00 | 47 | 1008.7 |
| 20260504003012 | 11 | 198 | 0.0 | 1.6 | 0.00 | 0.00 | 0.00 | 45 | 1008.7 |
| 20260504002917 | 11 | 216 | 0.0 | 1.6 | 0.00 | 0.00 | 0.00 | 45 | 1008.5 |
| 20260504001803 | 11 | 0 | 0.0 | 0.0 | 0.00 | 0.00 | 0.00 | 46 | 1008.5 |
| 20260504001504 | 11 | 206 | 0.0 | 0.0 | 0.00 | 0.00 | 0.00 | 45 | 1008.5 |
| 20260504000903 | 12 | 175 | 0.0 | 3.2 | 0.00 | 0.00 | 0.00 | 44 | 1008.4 |
| 20260504000007 | 12 | 210 | 0.0 | 1.6 | 0.00 | 0.00 | 0.00 | 40 | 1008.4 |
| 20260504000003 | 12 | 0 | 0.0 | 0.0 | 0.00 | 0.00 | 0.00 | 40 | 1008.2 |
| 20260503235403 | 13 | 227 | 0.0 | 4.8 | 0.00 | 0.00 | 0.00 | 39 | 1008.2 |
| 20260503234511 | 13 | 154 | 0.0 | 4.8 | 0.00 | 0.00 | 0.00 | 38 | 1008.2 |
| 20260503234503 | 13 | 223 | 0.0 | 4.8 | 0.00 | 0.00 | 0.00 | 38 | 1008.1 |
| 20260503233603 | 13 | 270 | 0.0 | 4.8 | 0.00 | 0.00 | 0.00 | 37 | 1008.1 |
| 20260503233009 | 13 | 23 | 0.0 | 3.2 | 0.00 | 0.00 | 0.00 | 37 | 1008.1 |
| 20260503232703 | 14 | 265 | 0.0 | 6.4 | 0.00 | 0.00 | 0.00 | 36 | 1008.0 |
| 20260503231803 | 14 | 301 | 0.0 | 8.0 | 0.00 | 0.00 | 0.00 | 36 | 1007.9 |
| 20260503231508 | 14 | 207 | 0.0 | 8.0 | 0.00 | 0.00 | 0.00 | 36 | 1008.1 |
| 20260503230903 | 15 | 340 | 0.0 | 1.6 | 0.00 | 0.00 | 0.00 | 36 | 1007.9 |
| 20260503230014 | 15 | 333 | 0.0 | 6.4 | 0.00 | 0.00 | 0.00 | 34 | 1007.9 |
| 20260503230003 | 15 | 289 | 1.6 | 8.0 | 0.00 | 0.00 | 0.00 | 34 | 1007.8 |
| 20260503225618 | 15 | 285 | 1.6 | 6.4 | 0.00 | 0.00 | 0.00 | 34 | 1007.8 |
| 20260503224506 | 15 | 14 | 0.0 | 8.0 | 0.00 | 0.00 | 0.00 | 33 | 1007.9 |
| 20260503224503 | 15 | 315 | 1.6 | 8.0 | 0.00 | 0.00 | 0.00 | 33 | 1007.8 |
| 20260503223603 | 15 | 282 | 1.6 | 11.3 | 0.00 | 0.00 | 0.00 | 33 | 1007.8 |
| 20260503223009 | 15 | 327 | 3.2 | 9.7 | 0.00 | 0.00 | 0.00 | 32 | 1007.9 |
| 20260503222918 | 15 | 290 | 1.6 | 11.3 | 0.00 | 0.00 | 0.00 | 32 | 1007.7 |
| 20260503221803 | 16 | 309 | 3.2 | 9.7 | 0.00 | 0.00 | 0.00 | 33 | 1007.6 |
| 20260503221605 | 15 | 254 | 0.0 | 11.3 | 0.00 | 0.00 | 0.00 | 32 | 1007.7 |
| 20260503220903 | 16 | 302 | 4.8 | 14.5 | 0.00 | 0.00 | 0.00 | 30 | 1007.7 |
| 20260503220218 | 16 | 301 | 3.2 | 14.5 | 0.00 | 0.00 | 0.00 | 32 | 1007.7 |
| 20260503220005 | 16 | 266 | 3.2 | 14.5 | 0.00 | 0.00 | 0.00 | 31 | 1007.8 |
| 20260503215403 | 16 | 270 | 3.2 | 9.7 | 0.00 | 0.00 | 0.00 | 32 | 1007.8 |
| 20260503214509 | 16 | 312 | 0.0 | 9.7 | 0.00 | 0.00 | 0.00 | 32 | 1007.8 |
| 20260503214503 | 16 | 327 | 1.6 | 9.7 | 0.00 | 0.00 | 0.00 | 32 | 1007.7 |
| 20260503213603 | 16 | 332 | 1.6 | 11.3 | 0.00 | 0.00 | 0.00 | 31 | 1007.7 |
| 20260503213012 | 16 | 61 | 1.6 | 9.7 | 0.00 | 0.00 | 0.00 | 33 | 1007.9 |
| 20260503212703 | 16 | 334 | 3.2 | 11.3 | 0.00 | 0.00 | 0.00 | 32 | 1007.7 |
| 20260503212017 | 16 | 319 | 3.2 | 9.7 | 0.00 | 0.00 | 0.00 | 33 | 1007.6 |
| 20260503211506 | 16 | 289 | 1.6 | 9.7 | 0.00 | 0.00 | 0.00 | 33 | 1007.8 |
| 20260503210903 | 16 | 284 | 4.8 | 16.1 | 0.00 | 0.00 | 0.00 | 32 | 1007.8 |
| 20260503210009 | 16 | 212 | 1.6 | 12.9 | 0.00 | 0.00 | 0.00 | 32 | 1008.0 |
| 20260503210003 | 16 | 302 | 3.2 | 12.9 | 0.00 | 0.00 | 0.00 | 32 | 1007.8 |
| 20260503205403 | 16 | 293 | 4.8 | 19.3 | 0.00 | 0.00 | 0.00 | 32 | 1007.9 |
| 20260503204602 | 16 | 280 | 6.4 | 19.3 | 0.00 | 0.00 | 0.00 | 31 | 1008.0 |
| 20260503204503 | 16 | 289 | 6.4 | 19.3 | 0.00 | 0.00 | 0.00 | 31 | 1007.9 |
| 20260503203818 | 16 | 296 | 4.8 | 11.3 | 0.00 | 0.00 | 0.00 | 32 | 1007.9 |
| 20260503203018 | 15 | 244 | 4.8 | 14.5 | 0.00 | 0.00 | 0.00 | 32 | 1007.9 |
| 20260503202703 | 16 | 319 | 4.8 | 14.5 | 0.00 | 0.00 | 0.00 | 32 | 1007.8 |
| 20260503201803 | 16 | 309 | 4.8 | 14.5 | 0.00 | 0.00 | 0.00 | 33 | 1007.7 |
| 20260503201511 | 16 | 31 | 6.4 | 14.5 | 0.00 | 0.00 | 0.00 | 32 | 1008.0 |
| 20260503200903 | 16 | 315 | 4.8 | 16.1 | 0.00 | 0.00 | 0.00 | 32 | 1007.9 |
| 20260503200003 | 15 | 352 | 6.4 | 14.5 | 0.00 | 0.00 | 0.00 | 34 | 1008.1 |
| 20260503195403 | 16 | 287 | 3.2 | 14.5 | 0.00 | 0.00 | 0.00 | 33 | 1007.9 |